Regional Weather Roundup
Issued by NWS

Home | Current Version | Previous Version | Graphics & Text | Print | Product List | Glossary On
Versions: 1 2 3 4 5 6 7 8 9 10 11 12 13 14 15 16 17 18 19 20 21 22 23 24 25 26 27 28 29 30 31 32 33 34 35 36 37 38 39 40 41 42 43 44 45 46 47 48 49 50
838
ASUS45 KBOU 280207
RWRCO

WEATHER ROUNDUP FOR COLORADO
NATIONAL WEATHER SERVICE DENVER/BOULDER CO
800 PM MDT FRI MAY 27 2016

NOTE: "FAIR" INDICATES FEW OR NO CLOUDS BELOW 12000 FEET WITH NO
SIGNIFICANT WEATHER AND/OR OBSTRUCTIONS TO VISIBILITY.

COZ001>005-013-030-031-280300-
...NORTHWEST COLORADO...

CITY           SKY/WX    TMP DP  RH WIND       PRES   REMARKS
CRAIG          LGT RAIN  50  42  74 SE7       30.00R
HAYDEN         MOCLDY    46  39  76 E8        30.01R
MEEKER         FAIR      51  43  74 N5        30.00R
MOUNT WERNER   NOT AVBL
STEAMBOAT SPGS FAIR      44  38  78 CALM      30.03R
WALDEN         MOCLDY    41  34  75 NE5       30.05R
$$

COZ006>008-011-280300-
...WEST CENTRAL VALLEYS...

CITY           SKY/WX    TMP DP  RH WIND       PRES   REMARKS
GRAND JUNCTION MOCLDY    60  34  37 NE18G26   29.90R
MONTROSE       MOCLDY    60  31  33 SE5       29.97R
EAGLE          FAIR      48  43  81 E5        30.04R
RIFLE          FAIR      54  38  54 CALM      29.97R
DELTA          FAIR      64  34  32 E10       29.94R
NUCLA          MOCLDY    63  28  27 N5        29.97R
$$

COZ017>023-064>068-280300-
...SOUTHWEST COLORADO...

CITY           SKY/WX    TMP DP  RH WIND       PRES   REMARKS
DURANGO        FAIR      54  31  41 N14       29.98R
CORTEZ         FAIR      62  32  32 E13       29.94R
PAGOSA SPRINGS FAIR      46  39  77 SE3       30.06R
TELLURIDE      MOCLDY    44  34  67 CALM      30.12R
WOLF CREEK PAS FAIR      28  28 100 SW16      30.21S WCI  17
$$

COZ009-010-012-014-032>034-037-058>063-280300-
...CENTRAL COLORADO...

CITY           SKY/WX    TMP DP  RH WIND       PRES   REMARKS
ASPEN          FAIR      49  34  56 CALM      30.05R
BUENA VISTA    FAIR      45  32  60 NW21G31   30.03R
COPPER MTN     NOT AVBL
BERTHOUD PASS  CLOUDY    27  16  63 NW18      30.17R WCI  13
COTTONWOOD PAS CLOUDY    45  28  53 W7G20     30.09R
GUNNISON       FAIR      46  34  61 CALM      30.07S
KREMMLING      MOCLDY    46  37  71 SE6       30.04R
LEADVILLE      FAIR      33  31  92 N3        30.10S
MONARCH PASS   FOG       30  28  93 W20       30.27S VSB<1/4 WCI  18
SALIDA         MOCLDY    52  34  51 W10       30.09R
SUNLIGHT       FAIR      36  32  87 CALM      30.18S
WILKERSON PASS MOCLDY    32  30  93 N6G20     30.17R WCI  26
$$

COZ069>075-280300-
...SAN LUIS VALLEY/SANGRE DE CRISTO MOUNTAINS...

CITY           SKY/WX    TMP DP  RH WIND       PRES   REMARKS
ALAMOSA        CLOUDY    44  38  79 SE5       30.04R
LA VETA PASS   CLOUDY    34  32  93 SW7       30.12R THUNDER WCI  28
SAGUACHE       CLOUDY    48  32  53 NW13      30.04R
$$

COZ035-036-038>040-280300-
...NORTHERN COLORADO FRONT RANGE...

CITY           SKY/WX    TMP DP  RH WIND       PRES   REMARKS
DENVER INTL AP MOCLDY    54  41  61 W6        29.95R
DMNS CITY PARK   N/A     53  39  58 W8        29.94S
AURORA         MOCLDY    51  45  79 W6        29.96R
FRONT RANGE AP MOCLDY    52  43  71 NW5       29.95R
ERIE MUNI ARPT FAIR      53  45  72 W3        29.94R
BOULDER MUN AP FAIR      52  46  82 SW3       29.95R
CENTENNIAL     MOCLDY    50  40  68 W10       29.96R
BROOMFIELD     PTCLDY    50  41  71 W8        29.97R
FORT COLLINS   FAIR      25 N/A N/A W5        29.95R WCI  19
LONGMONT       FAIR      53  48  82 NW3       29.96R
$$

COZ041-046-047-076>085-087-088-280300-
...PIKES PEAK/PALMER DIVIDE AND SOUTHERN FOOTHILLS...

CITY           SKY/WX    TMP DP  RH WIND       PRES   REMARKS
COLO. SPRINGS  MOCLDY    54  37  52 NW14      29.96R
A. F. ACADEMY  FAIR      52  37  58 N13G23    29.97R
SCHRIEVER AFB  NOT AVBL
ELLICOTT       FAIR     N/A N/A N/A N9G28     29.94R
FALCON         FAIR      50  38  63 N10G17    29.98S
FORT CARSON    FAIR      55  37  50 N15G24    29.93R
LIMON          FAIR      50  44  80 NW9       29.93R
MONUMENT HILL  FAIR      43  39  87 NW10G16   30.01R
TRINIDAD       FAIR      55  39  54 N5        29.95R
$$

COZ042>045-048>051-090-091-280300-
...NORTHEAST COLORADO...

CITY           SKY/WX    TMP DP  RH WIND       PRES   REMARKS
GREELEY ARPT   FAIR      55  45  67 N7        29.93R
AKRON          FAIR      51  46  83 N8        29.89R
BURLINGTON     FAIR      52  46  80 N6        29.84R
WRAY           FAIR      52  46  82 NW5       29.82R
STERLING       FAIR      54  48  82 N5        29.86R
HOLYOKE        FAIR      54  46  76 N9        29.84R
FORT MORGAN    FAIR      54  44  68 CALM      29.91R
$$

COZ086-089-092>099-280300-
...SOUTHEAST COLORADO...

CITY           SKY/WX    TMP DP  RH WIND       PRES   REMARKS
PUEBLO         CLOUDY    60  44  55 SE10      29.91R
LA JUNTA       FAIR      57  45  64 N5        29.89R
LAMAR          FAIR      55  46  71 W9        29.83R
SPRINGFIELD      N/A     54  41  61 NW13      29.86R
$$




USA.gov is the U.S. government's official web portal to all federal, state and local government web resources and services.